[[{"header":{"parameterUnit":"m.s-1","parameterCategory":1,"la1":30.2991,"la2":30.254,"lo1":-89.0895,"lo2":-89.0444,"dy":0.0017,"dx":0.0017,"nx":28,"ny":28,"refTime":"2023-11-16T09:00:00:Z","depth":0,"parameterNumber":2,"parameterNumberName":"U-component_of_WINDS"},"data":[0,0,0,0,0,0,0,0,0,0,0,0,0,0,0,0,0,0,0,0,0,0,0,0,0,0,0,0,0,0,0,0,0,0,0,0,0,0,0,0,0,0,0,0,0,0,0,0,0,0,0,0,0,0,0,0,0,0,-5.2304,-5.2304,0,-5.2372,-5.2373,-5.2373,-5.2255,-5.2251,-5.2247,-5.2243,-5.2315,-5.232,-5.2326,0,0,0,0,0,0,0,0,0,0,0,0,0,-5.2072,-5.2077,-5.2303,-5.2304,-5.2305,-5.2372,-5.2373,-5.2374,-5.2256,-5.2251,-5.2246,-5.2242,-5.2313,-5.232,-5.2326,0,0,0,0,0,0,0,0,0,0,0,0,0,-5.216,-5.2078,-5.2303,-5.2254,-5.2251,-5.2372,-5.2373,-5.2374,-5.2257,-5.2251,-5.2245,-5.2239,-5.2311,-5.2319,-5.2327,-5.2499,0,0,-5.2353,-5.2357,0,0,0,0,0,0,0,0,-5.2155,-5.2168,-5.2261,-5.2258,-5.2254,-5.2299,-5.2317,-5.2416,-5.2258,-5.2255,-5.2243,-5.2236,-5.2314,-5.2322,-5.2348,-5.2503,-5.2506,-5.2354,-5.2359,-5.2363,-5.2365,0,0,0,0,0,0,0,-5.2149,-5.2165,-5.233,-5.2262,-5.2258,-5.2229,-5.2235,-5.2335,-5.2317,-5.2255,-5.2246,-5.2256,-5.2311,-5.234,-5.2349,-5.2507,-5.2354,-5.2361,-5.2366,-5.237,-5.2807,-5.2814,0,0,0,0,0,0,-5.2149,-5.2161,-5.2328,-5.2332,-5.2189,-5.2239,-5.2245,-5.2291,-5.2316,-5.2314,-5.2261,-5.225,-5.2329,-5.2339,-5.2351,-5.2556,-5.2363,-5.237,-5.2375,-5.2801,-5.2809,-5.2816,0,0,0,0,0,0,-5.2144,-5.2165,-5.2326,-5.2244,-5.2263,-5.2249,-5.2301,-5.2295,-5.2324,-5.2321,-5.2317,-5.2294,-5.2325,-5.2339,-5.2464,-5.2556,-5.2374,-5.2382,-5.2793,-5.2803,-5.2812,-5.2965,0,0,0,0,0,0,-5.2138,-5.2164,-5.2229,-5.2247,-5.2267,-5.2437,-5.2307,-5.2301,-5.2339,-5.2325,-5.2351,-5.2349,-5.2321,-5.2452,-5.2472,-5.2565,-5.2389,-5.2785,-5.2798,-5.2809,-5.2952,-5.2979,-5.3003,0,0,0,0,0,-5.213,-5.2269,-5.2233,-5.2254,-5.2348,-5.2443,-5.2454,-5.2419,-5.2347,-5.2412,-5.241,-5.2348,-5.2543,-5.2465,-5.2487,-5.2584,-5.2779,-5.2794,-5.2808,-5.2941,-5.2974,-5.3002,0,0,0,0,0,0,-5.2263,-5.2271,-5.223,-5.2379,-5.2411,-5.2422,-5.2504,-5.2455,-5.2509,-5.2494,-5.2448,-5.2455,-5.2589,-5.2598,-5.2512,-5.2752,-5.2649,-5.2668,-5.2742,-5.2773,-5.2798,-5.2794,-5.2396,0,0,0,0,0,-5.231,-5.2385,-5.2388,-5.2519,-5.2537,-5.2518,-5.2558,-5.2528,-5.2559,-5.2572,-5.2579,-5.2613,-5.2681,-5.2727,-5.279,-5.2952,-5.2957,-5.3029,-5.3055,-5.3075,-5.3094,-5.3182,-5.3215,-5.2864,-5.2864,-5.2864,0,0,-5.2407,-5.242,-5.2471,-5.2546,-5.2567,-5.2648,-5.253,-5.262,-5.2679,-5.2586,-5.2704,-5.2711,-5.2745,-5.2889,-5.2953,-5.2901,-5.3191,-5.3094,-5.3111,-5.3118,-5.32,-5.3234,-5.3263,-5.2874,-5.2873,-5.2871,0,0,-5.2625,-5.2642,-5.2754,-5.2778,-5.2812,-5.2798,-5.2825,-5.2844,-5.2845,-5.2963,-5.2895,-5.2965,-5.3083,-5.3111,-5.314,-5.337,-5.3316,-5.3391,-5.3524,-5.361,-5.3638,-5.3662,-5.3746,-5.3776,-5.3409,-5.341,-5.341,0,-5.2742,-5.286,-5.2818,-5.2913,-5.2948,-5.2867,-5.2981,-5.3006,-5.3059,-5.3085,-5.3026,-5.3174,-5.3191,-5.3342,-5.3398,-5.3424,-5.3454,-5.3389,-5.3637,-5.3661,-5.3683,-5.3763,-5.3794,-5.3419,-5.3418,-5.3417,-5.3416,0,-5.3002,-5.3085,-5.3171,-5.3225,-5.327,-5.3373,-5.3348,-5.3399,-5.3365,-5.3358,-5.348,-5.3497,-5.3563,-5.3596,-5.3563,-5.3742,-5.3709,-5.3645,-5.354,-5.3727,-5.38,-5.383,-5.3432,-5.3429,-5.3426,-5.3424,0,0,-5.3308,-5.3336,-5.3369,-5.3393,-5.3424,-5.3487,-5.3587,-5.3651,-5.3697,-5.3735,-5.3819,-5.3922,-5.3862,-5.3896,-5.3866,-5.3941,-5.4124,-5.3867,-5.3867,-5.3916,-5.4324,-5.4374,-5.441,-5.4087,-5.4093,-5.4097,-5.4322,0,-5.3526,-5.3699,-5.3664,-5.3834,-5.3911,-5.3835,-5.3922,-5.3951,-5.3948,-5.4012,-5.4007,-5.4082,-5.3997,-5.4017,-5.4088,-5.4087,-5.4206,-5.407,-5.4166,-5.417,-5.4162,-5.4448,-5.4501,-5.4713,-5.435,-5.4355,-5.4359,0,-5.3804,-5.3854,-5.4032,-5.4051,-5.4082,-5.4162,-5.4218,-5.428,-5.4312,-5.4304,-5.4342,-5.4298,-5.4398,-5.4291,-5.4429,-5.4337,-5.4374,-5.438,-5.4387,-5.4397,-5.4277,-5.4467,-5.4779,-5.4812,-5.4403,-5.44,-5.4397,0,-5.4012,-5.4123,-5.4243,-5.4266,-5.4292,-5.4349,-5.4363,-5.4388,-5.4429,-5.4478,-5.4505,-5.4565,-5.4599,-5.4647,-5.462,-5.4544,-5.4764,-5.4654,-5.4762,-5.4763,-5.4813,-5.4811,-5.5137,-5.4834,-5.4834,-5.4833,-5.4832,0,-5.426,-5.4372,-5.4337,-5.4412,-5.4535,-5.4494,-5.4618,-5.4622,-5.4646,-5.472,-5.4658,-5.4729,-5.4689,-5.4757,-5.4737,-5.4856,-5.4871,-5.4868,-5.4862,-5.4875,-5.4876,-5.49,-5.4886,-5.4841,-5.4839,-5.4838,-5.4836,0,-5.4514,-5.4494,-5.4621,-5.4635,-5.4641,-5.4732,-5.4744,-5.4814,-5.4805,-5.4901,-5.4921,-5.4907,-5.4985,-5.4963,-5.5046,-5.5033,-5.5184,-5.5157,-5.5174,-5.5168,-5.5277,-5.5268,-5.5633,-5.568,-5.5345,-5.5348,-5.535,0,-5.4675,-5.4759,-5.4782,-5.4828,-5.4846,-5.492,-5.4961,-5.4924,-5.497,-5.5013,-5.5079,-5.515,-5.5206,-5.5334,-5.5332,-5.5396,-5.5372,-5.5495,-5.5381,-5.5393,-5.5376,-5.5373,-5.5382,-5.5519,-5.5523,-5.5526,-5.5528,0,-5.4963,-5.495,-5.5012,-5.5072,-5.5123,-5.5168,-5.5208,-5.5249,-5.5214,-5.5269,-5.5348,-5.5391,-5.5477,-5.555,-5.5608,-5.5622,-5.5571,-5.5564,-5.5593,-5.5608,-5.5615,-5.5615,-5.5238,-5.5556,-5.5554,-5.5552,-5.555,-5.5549,-5.5177,-5.5249,-5.5277,-5.5349,-5.5374,-5.5413,-5.548,-5.5479,-5.5544,-5.5611,-5.5585,-5.5676,-5.5706,-5.5779,-5.5801,-5.5871,-5.5824,-5.5866,-5.5876,-5.5888,-5.5903,-5.5602,-5.5882,-5.5881,-5.588,-5.5879,-5.5879,0,-5.5464,-5.5478,-5.5544,-5.5602,-5.5659,-5.5604,-5.5645,-5.5697,-5.5777,-5.5809,-5.5865,-5.5956,-5.6027,-5.603,-5.6096,-5.6153,-5.6131,-5.6171,-5.6168,-5.6172,-5.594,-5.5909,-5.6188,-5.6188,-5.6188,-5.6188,-5.6188,-5.6188,-5.562,-5.574,-5.573,-5.5862,-5.5875,-5.5963,-5.5992,-5.6027,-5.6053,-5.6157,-5.6215,-5.6217,-5.6238,-5.6305,-5.6368,-5.6367,-5.6395,-5.6445,-5.6436,-5.6219,-5.6189,-5.6159,-5.6131,-5.6451,-5.6452,-5.6663,-5.6665,-5.6667]},{"header":{"parameterUnit":"m.s-1","parameterCategory":1,"la1":30.2991,"la2":30.254,"lo1":-89.0895,"lo2":-89.0444,"dy":0.0017,"dx":0.0017,"nx":28,"ny":28,"refTime":"2023-11-16T09:00:00:Z","depth":0,"parameterNumber":3,"parameterNumberName":"V-component_of_WINDS"},"data":[0,0,0,0,0,0,0,0,0,0,0,0,0,0,0,0,0,0,0,0,0,0,0,0,0,0,0,0,0,0,0,0,0,0,0,0,0,0,0,0,0,0,0,0,0,0,0,0,0,0,0,0,0,0,0,0,0,0,-5.6667,-5.6667,0,-5.6651,-5.6651,-5.6651,-5.6546,-5.6543,-5.6541,-5.6538,-5.6523,-5.6525,-5.6527,0,0,0,0,0,0,0,0,0,0,0,0,0,-5.6607,-5.6608,-5.6667,-5.6667,-5.6667,-5.6651,-5.6651,-5.6651,-5.6546,-5.6543,-5.654,-5.6537,-5.6523,-5.6525,-5.6528,0,0,0,0,0,0,0,0,0,0,0,0,0,-5.6616,-5.6609,-5.6667,-5.6613,-5.6608,-5.6651,-5.6651,-5.6651,-5.6547,-5.6543,-5.6539,-5.6536,-5.6522,-5.6525,-5.6528,-5.6623,0,0,-5.6537,-5.6538,0,0,0,0,0,0,0,0,-5.6616,-5.6619,-5.6621,-5.6617,-5.6611,-5.6597,-5.6624,-5.6642,-5.6548,-5.657,-5.6538,-5.6534,-5.6551,-5.6551,-5.6557,-5.6622,-5.6622,-5.6537,-5.6539,-5.654,-5.6541,0,0,0,0,0,0,0,-5.6615,-5.6619,-5.6661,-5.6621,-5.6615,-5.6589,-5.6586,-5.6627,-5.6582,-5.6568,-5.656,-5.656,-5.6548,-5.6554,-5.6556,-5.6621,-5.6537,-5.654,-5.6542,-5.6543,-5.6763,-5.6767,0,0,0,0,0,0,-5.6622,-5.6619,-5.6661,-5.666,-5.6604,-5.6593,-5.659,-5.6605,-5.6582,-5.6574,-5.6563,-5.6555,-5.6551,-5.6552,-5.6555,-5.6664,-5.654,-5.6543,-5.6545,-5.6759,-5.6764,-5.6769,0,0,0,0,0,0,-5.6621,-5.6627,-5.6662,-5.6638,-5.664,-5.6598,-5.6616,-5.6607,-5.6613,-5.6578,-5.6569,-5.6578,-5.6548,-5.6551,-5.6607,-5.6662,-5.6544,-5.6547,-5.6754,-5.6761,-5.6766,-5.6884,0,0,0,0,0,0,-5.662,-5.6627,-5.6663,-5.6639,-5.6642,-5.6714,-5.662,-5.6609,-5.6619,-5.6608,-5.659,-5.6583,-5.6545,-5.6603,-5.661,-5.6664,-5.6549,-5.6749,-5.6757,-5.6764,-5.6875,-5.6893,-5.6909,0,0,0,0,0,-5.6618,-5.6697,-5.6666,-5.6671,-5.6686,-5.6718,-5.6719,-5.6674,-5.6624,-5.6659,-5.6636,-5.6584,-5.6655,-5.6609,-5.6616,-5.6672,-5.6746,-5.6755,-5.6764,-5.6867,-5.689,-5.6909,0,0,0,0,0,0,-5.673,-5.6693,-5.6658,-5.6731,-5.6728,-5.67,-5.6743,-5.6699,-5.6711,-5.67,-5.6643,-5.664,-5.6705,-5.6694,-5.6644,-5.6763,-5.6691,-5.6702,-5.6768,-5.6789,-5.6805,-5.6807,-5.6552,0,0,0,0,0,-5.6763,-5.6792,-5.6758,-5.6827,-5.6827,-5.6786,-5.6798,-5.6763,-5.6758,-5.6756,-5.6737,-5.6735,-5.6756,-5.6772,-5.679,-5.6873,-5.6867,-5.6915,-5.6932,-5.6946,-5.6956,-5.6999,-5.702,-5.6799,-5.6799,-5.6798,0,0,-5.6832,-5.6815,-5.6837,-5.6849,-5.6842,-5.6873,-5.6785,-5.6822,-5.6845,-5.6762,-5.6813,-5.68,-5.6793,-5.6863,-5.6892,-5.6856,-5.7016,-5.6958,-5.6969,-5.6972,-5.7011,-5.7032,-5.705,-5.6805,-5.6804,-5.6803,0,0,-5.6973,-5.6964,-5.7019,-5.7014,-5.7005,-5.6977,-5.6991,-5.6969,-5.6956,-5.7007,-5.6945,-5.6971,-5.701,-5.7007,-5.7011,-5.715,-5.7102,-5.7158,-5.7247,-5.7289,-5.7307,-5.7322,-5.7371,-5.739,-5.7168,-5.7168,-5.7168,0,-5.706,-5.7104,-5.7053,-5.7094,-5.71,-5.7026,-5.7081,-5.7079,-5.7078,-5.7084,-5.7042,-5.7089,-5.7079,-5.7147,-5.7181,-5.7186,-5.72,-5.716,-5.7308,-5.7323,-5.7336,-5.7383,-5.7402,-5.7175,-5.7174,-5.7174,-5.7173,0,-5.7211,-5.7243,-5.7288,-5.7287,-5.7299,-5.7347,-5.7304,-5.7322,-5.7286,-5.7262,-5.7314,-5.73,-5.7313,-5.7327,-5.7292,-5.739,-5.7367,-5.7318,-5.7245,-5.7365,-5.7408,-5.7425,-5.7185,-5.7182,-5.718,-5.7179,0,0,-5.7423,-5.7392,-5.741,-5.7408,-5.7392,-5.7416,-5.746,-5.7473,-5.7489,-5.749,-5.7526,-5.756,-5.7514,-5.7519,-5.7483,-5.752,-5.7631,-5.7466,-5.7465,-5.7497,-5.7738,-5.7775,-5.7796,-5.7599,-5.7602,-5.7605,-5.7738,0,-5.7558,-5.7632,-5.7587,-5.7667,-5.7696,-5.7625,-5.7664,-5.7658,-5.7637,-5.7659,-5.7635,-5.766,-5.7598,-5.76,-5.7633,-5.7611,-5.7679,-5.76,-5.7632,-5.7634,-5.7636,-5.7818,-5.7858,-5.7984,-5.7754,-5.7757,-5.7759,0,-5.7726,-5.7733,-5.7817,-5.7794,-5.7804,-5.784,-5.7847,-5.7868,-5.7861,-5.7843,-5.7848,-5.7803,-5.7845,-5.7773,-5.783,-5.7778,-5.7788,-5.7779,-5.7782,-5.7784,-5.7704,-5.7825,-5.8024,-5.8043,-5.7785,-5.7783,-5.7781,0,-5.7872,-5.7902,-5.7956,-5.7957,-5.7932,-5.7959,-5.795,-5.7938,-5.7948,-5.7955,-5.7961,-5.7973,-5.798,-5.799,-5.7949,-5.7901,-5.8012,-5.7937,-5.7999,-5.8,-5.8025,-5.8024,-5.8229,-5.8032,-5.8032,-5.8032,-5.8031,0,-5.8027,-5.8081,-5.8021,-5.8054,-5.8112,-5.8059,-5.8119,-5.8102,-5.8092,-5.8121,-5.8061,-5.8089,-5.8034,-5.8057,-5.8025,-5.8077,-5.8081,-5.8068,-5.8059,-5.8073,-5.8075,-5.8079,-5.8069,-5.8037,-5.8036,-5.8035,-5.8034,0,-5.8201,-5.8162,-5.8216,-5.8188,-5.8182,-5.8226,-5.8202,-5.8232,-5.8206,-5.8243,-5.8249,-5.8209,-5.8233,-5.8193,-5.8212,-5.8191,-5.8264,-5.8241,-5.8266,-5.826,-5.8324,-5.8318,-5.8538,-5.8564,-5.8352,-5.8354,-5.8355,0,-5.8303,-5.8342,-5.8318,-5.8332,-5.8327,-5.8351,-5.8361,-5.831,-5.8323,-5.8317,-5.8347,-5.8366,-5.8378,-5.8419,-5.8392,-5.8406,-5.8384,-5.846,-5.8385,-5.8399,-5.8385,-5.8383,-5.8387,-5.8475,-5.8478,-5.848,-5.8481,0,-5.8488,-5.8466,-5.8482,-5.8492,-5.8505,-5.851,-5.8511,-5.8526,-5.8473,-5.849,-5.8513,-5.8523,-5.8541,-5.8561,-5.8568,-5.8559,-5.8512,-5.8505,-5.852,-5.8535,-5.8548,-5.8542,-5.8308,-5.85,-5.8498,-5.8497,-5.8496,-5.8495,-5.8628,-5.8659,-5.8647,-5.8667,-5.8662,-5.8664,-5.869,-5.8667,-5.8685,-5.8696,-5.8665,-5.8695,-5.8686,-5.8691,-5.8687,-5.871,-5.8677,-5.8699,-5.8704,-5.8711,-5.8721,-5.8544,-5.8712,-5.8711,-5.8711,-5.871,-5.871,0,-5.881,-5.8798,-5.8816,-5.8819,-5.8834,-5.8787,-5.8786,-5.8802,-5.8829,-5.8824,-5.8836,-5.8863,-5.8881,-5.8855,-5.8869,-5.8892,-5.8871,-5.8898,-5.8896,-5.8894,-5.875,-5.8736,-5.8915,-5.8915,-5.8915,-5.8915,-5.8915,-5.8915,-5.8906,-5.8957,-5.8934,-5.8981,-5.8969,-5.8998,-5.9001,-5.9002,-5.8998,-5.9029,-5.9044,-5.9026,-5.9013,-5.9025,-5.904,-5.9032,-5.904,-5.9074,-5.9059,-5.8925,-5.8905,-5.8885,-5.8871,-5.9076,-5.9076,-5.9201,-5.9202,-5.9203]}]]